This demonstration page uses our WeatherBlox Daily Observations layout. Learn more.

Left ArrowRight Arrow

Hourly Observations for February 12, 2016

Temp ( °F °C ) Dew Point ( °F °C ) Humidity (%) Winds ( mph kmh ) Pressure ( in mb ) Visibility ( mi km ) Precip ( " mm )
12:19 am 00:19 Partly Cloudy 28 -2.2 27 -2.8 96 96 Calm 30.42 1030 7 11 0.00 0.00
12:53 am 00:53 Mostly Cloudy 29 -1.7 28 -2.2 96 96 Calm 30.37 1029 8 13 0.00 0.00
1:04 am 01:04 Partly Cloudy 28 -2 28 -2 100 100 Calm 30.42 1030 8 13 0.00 0.00
1:49 am 01:49 Mostly Cloudy with Mist and Fog 27 -3 27 -3 100 100 Calm 30.45 1031 5 8 0.00 0.00
1:53 am 01:53 Mostly Cloudy with Mist and Fog 27 -2.8 26 -3.3 96 96 Calm 30.38 1029 5 8 0.00 0.00
2:13 am 02:13 Partly Cloudy with Mist and Fog 26 -3.3 25 -3.9 96 96 E 3 6 30.45 1031 5 8 0.00 0.00
2:53 am 02:53 Clear with Mist and Fog 26 -3.3 25 -3.9 96 96 SE 5 7 30.38 1029 5 8 0.00 0.00
3:20 am 03:20 Mostly Cloudy with Mist and Fog 27 -3 25 -4 93 93 E 3 6 30.45 1031 5 8 0.00 0.00
3:53 am 03:53 Partly Cloudy with Mist and Fog 26 -3.3 25 -3.9 96 96 E 6 9 30.38 1029 5 8 0.00 0.00
4:31 am 04:31 Cloudy with Mist and Fog 28 -2.2 27 -2.8 96 96 E 5 7 30.42 1030 5 8 0.00 0.00
4:53 am 04:53 Cloudy with Mist and Fog 29 -1.7 28 -2.2 96 96 NE 6 9 30.38 1029 5 8 0.00 0.00
5:10 am 05:10 Cloudy with Mist and Fog 30 -1 28 -2 93 93 ENE 10 17 30.42 1030 5 8 0.00 0.00
5:35 am 05:35 Cloudy with Mist and Fog 31 -0.6 30 -1.1 96 96 ENE 14 22 30.42 1030 5 8 0.00 0.00
5:42 am 05:42 Cloudy with Mist and Fog 30 -1 30 -1 100 100 E 13 20 30.42 1030 5 8 0.00 0.00
5:53 am 05:53 Cloudy with Mist and Fog 31 -0.6 31 -0.6 100 100 E 13 20 30.37 1029 5 8 0.00 0.00
6:01 am 06:01 Cloudy with Mist and Fog 31 -0.6 31 -0.6 100 100 ENE 13 20 30.42 1030 5 8 0.00 0.00
6:46 am 06:46 Cloudy 30 -1 28 -2 93 93 E 16 26 30.42 1030 8 13 0.00 0.00
6:53 am 06:53 Cloudy 30 -1.1 28 -2.2 92 92 E 15 24 30.37 1028 8 13 0.00 0.00
7:53 am 07:53 Cloudy 29 -1.7 27 -2.8 92 92 E 18 30 30.37 1028 7 11 0.00 0.00
8:53 am 08:53 Cloudy 29 -1.7 27 -2.8 92 92 E 18 30 30.36 1028 7 11 0.00 0.00
9:53 am 09:53 Cloudy 30 -1.1 27 -2.8 88 88 E 20 31 30.34 1028 10 16 0.00 0.00
10:16 am 10:16 Cloudy 30 -1 27 -3 86 86 E 20 31 30.36 1028 10 16 0.00 0.00
10:53 am 10:53 Cloudy 31 -0.6 27 -2.8 85 85 E 17 28 30.32 1027 10 16 0.00 0.00
11:53 am 11:53 Cloudy 32 0 27 -2.8 82 82 ENE 16 26 30.29 1026 10 16 0.00 0.00
12:53 pm 12:53 Cloudy 32 0 26 -3.3 79 79 ENE 15 24 30.26 1025 10 16 0.00 0.00
1:53 pm 13:53 Cloudy 31 -0.6 25 -3.9 79 79 ENE 17 28 30.24 1024 10 16 0.00 0.00
2:53 pm 14:53 Cloudy 34 1.1 26 -3.3 73 73 ENE 21 33 30.19 1022 10 16 0.00 0.00
3:53 pm 15:53 Partly Cloudy 32 0 25 -3.9 75 75 ENE 20 31 30.18 1022 10 16 0.00 0.00
4:53 pm 16:53 Sunny 30 -1.1 25 -3.9 82 82 ENE 15 24 30.16 1021 10 16 0.00 0.00
5:53 pm 17:53 Clear 29 -1.7 25 -3.9 85 85 ENE 12 19 30.13 1020 10 16 0.00 0.00
6:53 pm 18:53 Clear 27 -2.8 25 -3.9 92 92 ENE 9 15 30.14 1021 10 16 0.00 0.00
7:53 pm 19:53 Clear 26 -3.3 24 -4.4 92 92 ENE 10 17 30.14 1021 10 16 0.00 0.00
8:53 pm 20:53 Mostly Cloudy 25 -3.9 24 -4.4 96 96 ENE 8 13 30.12 1020 9 14 0.00 0.00
9:53 pm 21:53 Partly Cloudy 23 -5 22 -5.6 96 96 E 7 11 30.11 1020 9 14 0.00 0.00
10:53 pm 22:53 Clear 22 -5.6 20 -6.7 92 92 ENE 5 7 30.09 1019 9 14 0.00 0.00
11:50 pm 23:50 Mostly Clear 21 -6 21 -6 100 100 E 5 7 30.15 1021 10 16 0.00 0.00
11:53 pm 23:53 Mostly Clear 22 -5.6 21 -6.1 96 96 E 3 6 30.07 1018 10 16 0.00 0.00

Powered by AerisWeather